Hanford, WA

6:45 PM PDT on July 24, 2017 (GMT -0700)
Hanford

Weather History for KHMS - December, 2012

Change the Weather History Date:

Wednesday, December 5, 2012

  Actual Average Record
Temperature  
Mean Temperature 44 °F -  
Max Temperature 51 °F 40 °F 51 °F (2007)
Min Temperature 36 °F 29 °F 18 °F (1998)
Degree Days  
Heating Degree Days 22    
Moisture  
Dew Point 29 °F    
Average Humidity 57    
Maximum Humidity 76    
Minimum Humidity 35    
Precipitation  
Precipitation 0.00 in - - ()
Sea Level Pressure  
Sea Level Pressure 30.07 in    
Wind  
Wind Speed 11 mph (West)    
Max Wind Speed 18 mph    
Max Gust Speed -    
Visibility 15 miles    
Events      
Averages and records for this station are not official NWS values.
T = Trace of Precipitation, MM = Missing Value Source: NWS Daily Summary

Daily Weather History Graph

Daily Weather History Graph

Search for Another Location

Airport or City:

Trip Planner

Search our weather history database for the weather conditions in past years. The results will help you decide how hot, cold, wet, or windy it might be!

Date:

Astronomy

Dec. 05, 2012 Rise Set
Actual Time 7:27 AM PST 4:11 PM PST
Civil Twilight 6:52 AM PST 4:46 PM PST
Nautical Twilight 6:14 AM PST 5:24 PM PST
Astronomical Twilight 5:37 AM PST 6:00 PM PST
Moon 11:25 PM PST (12/5) 11:36 AM PST (12/5)
Length of Visible Light 9h 53m
Length of Day
8h 44m
Waning Gibbous, 58% of the Moon is Illuminated
Dec 5
Waning Gibbous
Dec 6
Last Quarter
Dec 13
New
Dec 19
First Quarter
Dec 28
Full

Hourly Weather History & Observations

Time (PST) Temp. Windchill Dew Point Humidity Pressure Visibility Wind Dir Wind Speed Gust Speed Precip Events Conditions
12:50 AM 51.4 °F - 42.4 °F 71% 29.74 in 15.0 mi West 16.1 mph - N/A   Scattered Clouds
2:50 AM 46.8 °F - 35.8 °F 66% 29.80 in 15.0 mi West 6.9 mph - N/A   Partly Cloudy
3:50 AM 45.9 °F 38.5 °F 34.0 °F 63% 29.86 in 15.0 mi WSW 18.4 mph - N/A   Partly Cloudy
4:50 AM 42.4 °F 35.3 °F 32.0 °F 67% 29.93 in 15.0 mi NW 13.8 mph - N/A   Clear
6:50 AM 37.4 °F 31.4 °F 28.0 °F 69% 30.01 in 15.0 mi SW 8.1 mph - N/A   Clear
7:50 AM 40.3 °F 34.4 °F 24.4 °F 53% 30.06 in 15.0 mi South 9.2 mph - N/A   Clear
8:50 AM 43.0 °F 40.3 °F 25.9 °F 51% 30.08 in 15.0 mi West 4.6 mph - N/A   Clear
9:50 AM 47.7 °F - 26.4 °F 44% 30.11 in 15.0 mi West 5.8 mph - N/A   Clear
10:50 AM 49.8 °F - 24.8 °F 38% 30.12 in 15.0 mi South 8.1 mph - N/A   Clear
11:50 AM 50.9 °F - 24.1 °F 35% 30.13 in 15.0 mi WSW 12.7 mph - N/A   Partly Cloudy
12:50 PM 51.4 °F - 24.4 °F 35% 30.14 in 15.0 mi West 10.4 mph - N/A   Partly Cloudy
1:50 PM 50.9 °F - 27.9 °F 41% 30.14 in 15.0 mi West 9.2 mph - N/A   Scattered Clouds
2:50 PM 49.6 °F - 29.1 °F 45% 30.15 in 15.0 mi NNW 8.1 mph - N/A   Scattered Clouds
3:50 PM 46.6 °F - 30.2 °F 53% 30.17 in 15.0 mi NW 5.8 mph - N/A   Scattered Clouds
4:50 PM 40.8 °F 36.2 °F 27.9 °F 60% 30.18 in 15.0 mi NNW 6.9 mph - N/A   Scattered Clouds
5:50 PM 36.9 °F 31.4 °F 28.9 °F 73% 30.20 in 15.0 mi SSW 6.9 mph - N/A   Scattered Clouds
6:50 PM 37.8 °F 31.8 °F 29.7 °F 73% 30.20 in 15.0 mi West 8.1 mph - N/A   Mostly Cloudy
10:50 PM 37.4 °F 32.1 °F 30.0 °F 75% 30.19 in 15.0 mi SW 6.9 mph - N/A   Overcast
11:50 PM 36.7 °F 31.2 °F 29.8 °F 76% 30.17 in 15.0 mi South 6.9 mph - N/A   Overcast